TimeCDT,TemperatureF,Dew PointF,Humidity,Sea Level PressureIn,VisibilityMPH,Wind Direction,Wind SpeedMPH,Gust SpeedMPH,PrecipitationIn,Events,Conditions,WindDirDegrees,DateUTC
1:53 AM,69.1,66.9,93,29.95,10.0,South,13.8,-,N/A,,Overcast,170,2013-05-10 06:53:00
2:43 AM,69.8,66.2,88,29.97,10.0,South,8.1,-,0.00,Rain-Thunderstorm,Light Rain,180,2013-05-10 07:43:00
2:53 AM,69.1,68.0,96,29.96,8.0,South,6.9,-,0.01,Rain,Light Rain,180,2013-05-10 07:53:00
3:16 AM,69.8,68.0,94,29.97,7.0,South,5.8,-,0.02,Rain-Thunderstorm,Light Rain,190,2013-05-10 08:16:00
3:53 AM,69.1,68.0,96,29.95,5.0,Calm,Calm,-,0.07,Rain-Thunderstorm,Light Thunderstorms and Rain,0,2013-05-10 08:53:00
4:05 AM,69.8,68.0,94,30.00,1.8,West,8.1,-,0.14,Rain-Thunderstorm,Heavy Thunderstorms and Rain,280,2013-05-10 09:05:00
4:21 AM,69.8,69.8,100,29.98,2.5,Calm,Calm,-,0.33,Rain-Thunderstorm,Thunderstorms and Rain,0,2013-05-10 09:21:00
4:36 AM,69.8,68.0,94,29.98,2.5,North,4.6,-,0.41,Rain-Thunderstorm,Heavy Thunderstorms and Rain,350,2013-05-10 09:36:00
4:53 AM,69.1,69.1,100,29.98,1.0,NNW,8.1,-,0.61,Rain-Thunderstorm,Heavy Thunderstorms and Rain,330,2013-05-10 09:53:00
5:14 AM,64.4,62.6,94,29.99,1.8,NNW,19.6,28.8,0.34,Rain-Thunderstorm,Heavy Thunderstorms and Rain,340,2013-05-10 10:14:00
5:16 AM,64.4,62.6,94,29.99,2.0,NNW,19.6,28.8,0.36,Rain-Thunderstorm,Heavy Thunderstorms and Rain,340,2013-05-10 10:16:00
5:33 AM,64.4,60.8,88,30.03,1.8,Variable,6.9,-,0.52,Rain-Thunderstorm,Heavy Thunderstorms and Rain,0,2013-05-10 10:33:00
5:38 AM,62.6,62.6,100,30.03,1.0,WNW,9.2,-,0.65,Rain-Thunderstorm,Heavy Thunderstorms and Rain,300,2013-05-10 10:38:00
5:49 AM,62.6,62.6,100,30.01,2.5,North,11.5,-,0.74,Rain-Thunderstorm,Thunderstorms and Rain,350,2013-05-10 10:49:00
5:51 AM,62.6,62.6,100,30.01,3.0,NNW,11.5,-,0.74,Rain-Thunderstorm,Rain,340,2013-05-10 10:51:00
5:53 AM,63.0,62.1,97,30.01,4.0,NNW,9.2,-,0.75,Rain-Thunderstorm,Rain,340,2013-05-10 10:53:00
6:23 AM,62.6,62.6,100,30.00,5.0,East,3.5,-,0.09,Rain,Light Rain,90,2013-05-10 11:23:00
6:31 AM,62.6,62.6,100,30.01,5.0,SE,4.6,-,0.11,Rain-Thunderstorm,Rain,130,2013-05-10 11:31:00
6:53 AM,63.0,62.1,97,30.00,7.0,SE,3.5,-,0.16,Rain-Thunderstorm,Rain,140,2013-05-10 11:53:00
7:14 AM,62.6,62.6,100,30.02,2.5,Variable,5.8,-,0.07,Rain,Rain,0,2013-05-10 12:14:00
7:22 AM,62.6,62.6,100,30.01,3.0,ESE,6.9,-,0.10,Rain-Thunderstorm,Thunderstorms and Rain,120,2013-05-10 12:22:00
7:53 AM,63.0,62.1,97,29.99,4.0,ESE,6.9,-,0.14,Rain,Light Rain,120,2013-05-10 12:53:00
8:02 AM,62.6,62.6,100,30.00,4.0,Variable,4.6,-,0.00,Rain-Thunderstorm,Light Rain,0,2013-05-10 13:02:00
8:17 AM,62.6,62.6,100,29.98,10.0,ESE,5.8,-,0.00,,Mostly Cloudy,120,2013-05-10 13:17:00
8:53 AM,63.0,62.1,97,29.98,7.0,East,8.1,-,0.00,,Partly Cloudy,80,2013-05-10 13:53:00
9:53 AM,64.9,63.0,93,30.01,10.0,East,5.8,-,N/A,,Partly Cloudy,100,2013-05-10 14:53:00
10:15 AM,64.4,62.6,94,30.06,10.0,SE,6.9,-,N/A,,Mostly Cloudy,130,2013-05-10 15:15:00
10:53 AM,64.9,63.0,93,30.06,10.0,SE,4.6,-,N/A,,Overcast,130,2013-05-10 15:53:00
12:09 PM,71.6,64.4,78,30.05,10.0,South,9.2,-,N/A,,Mostly Cloudy,170,2013-05-10 17:09:00
12:20 PM,71.6,64.4,78,30.04,10.0,South,9.2,-,N/A,,Mostly Cloudy,170,2013-05-10 17:20:00
12:53 PM,73.0,64.0,73,30.01,10.0,SSW,9.2,-,N/A,,Scattered Clouds,200,2013-05-10 17:53:00
1:53 PM,75.0,64.0,69,30.01,10.0,SW,6.9,-,N/A,,Mostly Cloudy,220,2013-05-10 18:53:00
2:53 PM,75.9,63.0,64,29.97,10.0,WSW,9.2,-,N/A,,Partly Cloudy,240,2013-05-10 19:53:00
3:53 PM,75.0,63.0,66,29.96,10.0,SW,4.6,-,N/A,,Clear,230,2013-05-10 20:53:00
4:53 PM,73.0,64.9,76,29.96,10.0,SSW,12.7,19.6,N/A,,Mostly Cloudy,200,2013-05-10 21:53:00
5:53 PM,68.0,64.0,87,29.89,10.0,SSE,12.7,23.0,N/A,,Scattered Clouds,150,2013-05-10 22:53:00
6:16 PM,66.2,62.6,88,29.82,10.0,SE,12.7,19.6,N/A,,Mostly Cloudy,140,2013-05-10 23:16:00
6:53 PM,69.1,63.0,81,29.94,10.0,WNW,12.7,-,N/A,,Mostly Cloudy,300,2013-05-10 23:53:00
6:58 PM,69.8,62.6,78,29.95,10.0,NW,10.4,-,N/A,,Mostly Cloudy,310,2013-05-10 23:58:00
7:13 PM,71.6,62.6,73,29.95,10.0,WNW,6.9,-,N/A,,Scattered Clouds,300,2013-05-11 00:13:00
7:53 PM,68.0,63.0,84,29.95,10.0,Calm,Calm,-,N/A,,Clear,0,2013-05-11 00:53:00
8:53 PM,64.0,63.0,96,29.97,10.0,Calm,Calm,-,N/A,,Clear,0,2013-05-11 01:53:00
9:53 PM,63.0,62.1,97,29.97,10.0,SSW,3.5,-,N/A,,Clear,200,2013-05-11 02:53:00
10:53 PM,63.0,62.1,97,30.01,9.0,Calm,Calm,-,N/A,,Clear,0,2013-05-11 03:53:00
11:53 PM,61.0,60.1,97,30.01,8.0,Calm,Calm,-,N/A,,Clear,0,2013-05-11 04:53:00